Simultaneous Nadir Overpasses (SNOs) Predictions

Prediction of SNOs between AQUA and METOP-C Satellite Orbit:

Table of predicted SNOs for the next 14.0 days since TLE Epoch: 4/14/2023
Index Date (AQUA) Time (AQUA) Lat,Lon (AQUA) SZA (AQUA ) Date (METOP-C) Time (METOP-C) Lat,Lon (METOP-C) SZA (METOP-C ) Distance(km) Time Diff (sec)
1 04/15/2023 03:29:04 74.38, 123.30 64.70 04/15/2023 03:28:36 74.39, 123.42 64.70 3.70 28
2 04/15/2023 04:18:29 -74.43, -69.16 115.27 04/15/2023 04:19:16 -74.44, -69.11 115.27 1.95 47
3 04/17/2023 21:22:09 74.38,-144.95 63.72 04/17/2023 21:21:37 74.37,-144.89 63.71 2.70 32
4 04/17/2023 22:11:34 -74.42, 22.60 116.26 04/17/2023 22:12:17 -74.42, 22.57 116.26 1.20 43
5 04/20/2023 15:15:13 74.36, -53.13 62.74 04/20/2023 15:14:38 74.39, -53.10 62.77 3.16 35
6 04/20/2023 16:04:39 -74.44, 114.31 117.19 04/20/2023 16:05:18 -74.43, 114.35 117.20 1.83 39
7 04/23/2023 09:08:16 74.36, 38.64 61.81 04/23/2023 09:07:40 74.34, 38.54 61.80 3.41 36
8 04/23/2023 09:57:42 -74.44,-153.91 118.12 04/23/2023 09:58:19 -74.44,-153.89 118.13 0.80 37
9 04/26/2023 03:01:18 74.38, 130.36 60.93 04/26/2023 03:00:40 74.39, 130.40 60.94 1.64 38
10 04/26/2023 03:50:44 -74.46, -62.19 119.01 04/26/2023 03:51:20 -74.43, -62.15 119.03 3.00 36



Historial Predications of SNOs between AQUA and METOP-C
